Flag for Brazil Weather past 2 weeks in Pirassununga, São Paulo, Brazil

Now
64 °F

Clear.


Feels Like: 64 °F
Forecast: 51 / 84 °F
Wind: 8 mph from South

Location: Pirassununga Airport

Current Time: Aug 29, 2014 at 11:49:33 PM

Latest Report: Aug 29, 2014 at 11:00 PM


Visibility: 10 mi

Pressure: 30.12 "Hg

Humidity: 64%

Dew point: 52 °F

Location of PirassunungaLocation

Historic Weather in Pirassununga — Graph

°F

Pirassununga temperature yesterday

Maximum temperature yesterday: 82 °F (at 3:00 PM)
Minimum temperature yesterday: 54 °F (at 6:00 AM)
Average temperature yesterday: 69 °F

Past Weeks' High & Low Weather Summary

 TemperatureHumidityPressure
High90 °F (Aug 25, 1:00 PM)100% (Aug 18, 6:00 AM)30.33 "Hg (Aug 18, 6:00 AM)
Low46 °F (Aug 20, 6:00 AM)17% (Aug 24, 2:00 PM)29.92 "Hg (Aug 25, 3:00 PM)
Average71 °F53%30.12 "Hg
* Reported Aug 14 10:00 PM — Aug 29 10:00 PM, Pirassununga, Weather by CustomWeather, © 2014

Note: Actual official high and low records may vary slightly from our data, if they occured in-between our weather recording intervals... More about our weather records

Advertising

Pirassununga weather history for previous 24 hours

 ConditionsComfort  
Time TempWeatherWind HumidityBarometerVisibility
10:00 PM
Aug 29
63 °FClear.3 mph68%30.12 "Hg10 mi
9:00 PM66 °FClear.6 mph60%30.12 "Hg10 mi
8:00 PM68 °FClear.7 mph56%30.09 "Hg10 mi
7:00 PM72 °FClear.7 mph50%30.09 "Hg10 mi
6:00 PM75 °FClear.8 mph44%30.07 "Hg10 mi
4:00 PM81 °FSunny.7 mph37%30.04 "Hg10 mi
3:00 PM81 °FSunny.8 mph37%30.07 "Hg10 mi
2:00 PM79 °FSunny.8 mph39%30.07 "Hg10 mi
1:00 PM75 °FScattered clouds.3 mph47%30.09 "HgN/A
12:00 PM70 °FScattered clouds.6 mph57%30.12 "HgN/A
11:00 AM66 °FScattered clouds.12 mph64%30.15 "HgN/A
10:00 AM64 °FScattered clouds.7 mph64%30.18 "HgN/A
9:00 AM61 °FSunny.10 mph72%30.18 "Hg10 mi
8:00 AM55 °FClear.5 mph88%30.15 "Hg5 mi
7:00 AM52 °FClear.6 mph94%30.15 "Hg4 mi
6:00 AM50 °FFog.3 mph100%30.12 "Hg3 mi
11:00 PM
Aug 28
63 °FClear.12 mph68%30.09 "Hg10 mi
Weather by CustomWeather, © 2014

See weather overviewHow to use our weather pages